THORAD AGENA D DEB, 14466

Orbit data source: Space-Track

THORAD AGENA D DEB, 14466 is space debris in SSO originally from a launch on Wed, 08 Apr 1970 UTC launched from the Air Force Western Test Range (AFWTR). Debris objects in space refer to the collection of defunct objects orbiting the Earth. Examples of debris include non-operational satellites, rocket bodies, and fragments generated from explosions, collisions, or faulty payload assembly.

Loading next visibility...
Identifier
14466, 1970-025NS
Orbit
SSO
Country
Flag of USUS
Related business
Manufacturer
Unknown
Mission
Spacecraft
Bus & Motor
Unknown
Mass
Unknown
Launch date (UTC)
1970-04-08 (56 years ago)
Launch vehicle
Unknown
Launch site
Air Force Western Test Range (AFWTR)
Object type
Payload
Rocket body
Debris
Shape & HBR
Unknown shape, 0.1 m
Radar Cross Section
Small (<0.1 m²)

Expand to show TLE details & history
Last TLE update: 10 hours ago

TLE from 10 hours ago
0 THORAD AGENA D DEB
1 14466U 70025NS  26257.02143434  .00004544  00000-0  92953-3 0  9996
2 14466  99.9703 106.0825 0044084   8.3580 351.8339 14.60865932325383
Epoch: 2026-09-14T00:30Z
TLE epoch observation values (Epoch: 2026-09-14T00:30:51.926Z)
Latitude
-0.00008°
Longitude
105.35844°
Altitude
662.457 km
Speed
7.542 km/s
True Right ascension
07h 04m 19s
True Declination
0° 00' 00"
Sunlit
Object was in daylight at epoch
Visualization orbit readout
Latitude
Unknown
Longitude
Unknown
Altitude
Unknown
Speed
Unknown
Apparent Right ascension
Unknown
Apparent Declination
Unknown
Sunlit
N/A
Visualization observer readout
Local Sidereal Time
03:09:52
Azimuth
Unknown
Elevation
Unknown
Doppler factor
Unknown
Orbital elements
Apogee altitude
718.698 km
Perigee altitude
656.401 km
Semi-major axis
7,065.686 km
Eccentricity
0.00441
Inclination
99.9703°
RAAN
106.0825°
Arg. of periapsis
8.358°
True anomaly
351.76175°
Mean anomaly
351.8339°
Eccentric anomaly
351.79787°
Mean motion
3.65436 °/min
Orbital period
98.51 mins
BSTAR
0.00092953
Loading maneuver chart data...
Computing Atmospheric mass density...

Documentation

Showing up to 5 results
|